Regional Weather Roundup
Issued by NWS

Home | Current Version | Previous Version | Graphics & Text | Print | Product List | Glossary On
Versions: 1 2 3 4 5 6 7 8 9 10 11 12 13 14 15 16 17 18 19 20 21 22 23 24 25 26 27 28 29 30 31 32 33 34 35 36 37 38 39 40 41 42 43 44 45 46 47 48 49 50
751
ASUS43 KIND 181059
RWRIN

WEATHER ROUNDUP FOR INDIANA
NATIONAL WEATHER SERVICE INDIANAPOLIS IN
600 AM EST THU JAN 18 2018

NOTE: "FAIR" INDICATES FEW OR NO CLOUDS BELOW 12,000 FEET WITH NO
SIGNIFICANT WEATHER AND/OR OBSTRUCTIONS TO VISIBILITY.

* - STATION DOES NOT REPORT WEATHER SUCH AS PRECIPITATION OR FOG.

+ - STATION NOT QUALITY CONTROLLED BY THE NATIONAL WEATHER SERVICE.
    USE DATA WITH CAUTION...ESPECIALLY DEWPOINT AND RELATIVE
    HUMIDITY OBSERVATIONS.

INZ001>003-010>013-019-020-181200-
NORTHWEST INDIANA

CITY           SKY/WX    TMP DP  RH WIND       PRES   REMARKS
GARY /AIRPORT/ CLEAR     18   9  68 SW14      30.20S WCI   4
KNOX *+        FAIR      16   9  73 SW16      30.20F WCI   0
MICHIGAN CITY+ FAIR      18   9  68 SW10G16   30.19S WCI   6
MONTICELLO +   FAIR      15   7  71 SW14      30.25S WCI   0

$$

LMZ046-743>745-181200-
SOUTHERN LAKE MICHIGAN

STATION/POSITION TIME  TEMP    WIND        PRES    WAVE
                       AIR SEA DIR/SP/G            HT
                 (UTC) (F)     (DEG/KT/KT) (MB)    (FT)
BURNS HARBOR     1040   17     230/ 12/ 19 1022.7S
MICHIGAN CITY    1030   18     210/ 18/ 21   N/A

$$

INZ004-005-014>016-021>024-181200-
NORTH CENTRAL INDIANA

CITY           SKY/WX    TMP DP  RH WIND       PRES   REMARKS
GOSHEN         FAIR      14   7  73 SW16G25   30.16F WCI  -2
PERU/GRISSOM   FAIR      15   9  75 W17       30.24S WCI  -1
SOUTH BEND     FAIR      13   7  77 SW15      30.17S WCI  -3

$$

INZ006>009-017-018-025>027-181200-
NORTHEAST INDIANA

CITY           SKY/WX    TMP DP  RH WIND       PRES   REMARKS
FORT WAYNE     FAIR      15   8  73 SW20      30.20F WCI  -2
KENDALLVILLE + FAIR      15   9  76 W20G29    30.14S WCI  -2

$$

INZ028-029-035-036-043>045-051>053-181200-
WEST CENTRAL INDIANA

CITY           SKY/WX    TMP DP  RH WIND       PRES   REMARKS
GREENCASTLE +  FAIR      10   5  79 SW7       30.34S WCI   0
LAFAYETTE      FAIR      14   8  77 SW13      30.29S WCI   0
TERRE HAUTE    FAIR      11   5  77 SW12      30.38S WCI  -3

$$

INZ030>032-037>040-046>048-054>057-064-065-181200-
CENTRAL INDIANA

CITY           SKY/WX    TMP DP  RH WIND       PRES   REMARKS
GREENWOOD *+   FAIR      15   8  73 SW8       30.33F WCI   3
INDIANAPOLIS   FAIR      12   6  77 SW14      30.32F WCI  -3
-EAGLE CREEK   FAIR      11   5  77 SW6       30.32R WCI   1
MT COMFORT *+  FAIR       9   7  92 S7        30.31S WCI  -3
SHELBYVILLE    FAIR       9   3  77 S10       30.33F WCI  -5

$$

INZ033-034-041-042-049-050-058-059-181200-
EAST CENTRAL INDIANA

CITY           SKY/WX    TMP DP  RH WIND       PRES   REMARKS
MUNCIE         FAIR      13   5  70 SW14      30.26S WCI  -2
RICHMOND +     FAIR      10   7  85 SW16      30.29F WCI  -7

$$

INZ060-061-067>069-081>083-085>088-181200-
SOUTHWEST INDIANA

CITY           SKY/WX    TMP DP  RH WIND       PRES   REMARKS
EVANSVILLE     FAIR      11   8  88 S7        30.48S WCI   0
HUNTINGBURG +  FAIR       7   4  87 S10       30.47S WCI  -8

$$

INZ062-063-066-070>080-084-089>092-181200-
SOUTH CENTRAL AND SOUTHEAST INDIANA

CITY           SKY/WX    TMP DP  RH WIND       PRES   REMARKS
BLOOMINGTON    FAIR      12   5  73 SW10      30.36F WCI  -1
FRENCH LICK *+ FAIR      10   5  79 SW5       30.42F WCI   2
MADISON *+     FAIR      12   7  79 SW6       30.42S WCI   3
SEYMOUR +      FAIR      12   5  73 S7        30.41F WCI   2

$$





USA.gov is the U.S. government's official web portal to all federal, state and local government web resources and services.